Tracking 18980 objects as of 18-Feb-2018
HD Live streaming from Space Station
objects crossing your sky now

DMSP 5D-2 F14 DEB

Track DMSP 5D-2 F14 DEB now!
10-day predictions


NORAD ID: 24778
Int'l Code: 1997-012E
Perigee: 736.0 km
Apogee: 743.6 km
Inclination: 98.8 °
Period: 99.5 minutes
Semi major axis: 7110 km
RCS: 0.0755 m2 (small)
Launch date: April 4, 1997
Source: United States (US)
Launch site: AIR FORCE WESTERN TEST RANGE (AFWTR)

Note: This is SATELLITE DEBRIS
aabbcc
Your satellite tracking list
Your tracking list is empty




NASA's NSSDC Master Catalog

Two Line Element Set (TLE):
1 24778U 97012E   18048.72163758  .00001272  00000-0  35630-3 0  9999
2 24778  98.7923 322.4080 0005384 313.9767  98.7171 14.47858354 88988
Source of the keplerian elements: AFSPC